Radiation Dose at Monitoring Post of Fukushima Daini Nuclear Power Station
Date,Time,MP-1(microSv/h),MP-2(microSv/h),MP-3(microSv/h),MP-4(microSv/h),MP-5(microSv/h),MP-6(microSv/h),MP-7(microSv/h),Wind Direction,Wind Velocity(m/s),Rain
2016/01/30,00:00,0.406,0.242,0.439,0.391,0.369,0.201,0.169,north-northwest,8.4,Yes
2016/01/30,00:10,0.406,0.241,0.436,0.387,0.371,0.199,0.168,north-northwest,9.2,Yes
2016/01/30,00:20,0.404,0.240,0.436,0.388,0.368,0.199,0.169,north-northwest,8.4,Yes
2016/01/30,00:30,0.404,0.241,0.434,0.386,0.369,0.199,0.168,north-northwest,8.4,Yes
2016/01/30,00:40,0.402,0.239,0.434,0.386,0.367,0.198,0.167,north-northwest,8.7,Yes
2016/01/30,00:50,0.402,0.238,0.434,0.386,0.364,0.198,0.166,north-northwest,8.7,Yes
2016/01/30,01:00,0.400,0.239,0.433,0.384,0.366,0.198,0.165,north-northwest,8.9,Yes
2016/01/30,01:10,0.400,0.239,0.433,0.383,0.366,0.198,0.166,north-northwest,9.8,Yes
2016/01/30,01:20,0.398,0.238,0.432,0.383,0.364,0.197,0.164,north-northwest,10.1,Yes
2016/01/30,01:30,0.397,0.237,0.433,0.383,0.363,0.197,0.165,north-northwest,9.5,Yes
2016/01/30,01:40,0.396,0.238,0.431,0.381,0.361,0.197,0.165,north-northwest,9.3,Yes
2016/01/30,01:50,0.394,0.236,0.429,0.380,0.358,0.196,0.164,north-northwest,8.7,Yes
2016/01/30,02:00,0.393,0.236,0.427,0.379,0.359,0.195,0.164,north-northwest,8.8,Yes
2016/01/30,02:10,0.392,0.236,0.427,0.377,0.359,0.195,0.164,north-northwest,8.8,Yes
2016/01/30,02:20,0.392,0.234,0.426,0.376,0.356,0.194,0.163,north-northwest,8.1,Yes
2016/01/30,02:30,0.389,0.234,0.424,0.376,0.354,0.195,0.163,north-northwest,8.1,Yes
2016/01/30,02:40,0.389,0.233,0.422,0.374,0.354,0.195,0.164,north-northwest,8.2,Yes
2016/01/30,02:50,0.386,0.234,0.422,0.373,0.352,0.194,0.163,north-northwest,8.1,Yes
2016/01/30,03:00,0.387,0.234,0.420,0.372,0.350,0.194,0.161,north-northwest,8.5,Yes
2016/01/30,03:10,0.384,0.232,0.420,0.369,0.352,0.193,0.161,north-northwest,9.2,Yes
2016/01/30,03:20,0.383,0.230,0.418,0.368,0.350,0.193,0.160,north-northwest,9.2,Yes
2016/01/30,03:30,0.381,0.230,0.416,0.368,0.347,0.191,0.159,north-northwest,9.5,Yes
2016/01/30,03:40,0.381,0.230,0.415,0.366,0.345,0.191,0.160,north-northwest,9.8,Yes
2016/01/30,03:50,0.379,0.229,0.414,0.364,0.344,0.190,0.158,north-northwest,9.0,Yes
2016/01/30,04:00,0.379,0.228,0.414,0.364,0.344,0.189,0.157,north-northwest,9.8,Yes
2016/01/30,04:10,0.376,0.227,0.410,0.363,0.344,0.190,0.157,north-northwest,10.3,Yes
2016/01/30,04:20,0.377,0.227,0.412,0.364,0.343,0.190,0.158,north-northwest,9.5,Yes
2016/01/30,04:30,0.378,0.226,0.410,0.360,0.340,0.189,0.158,north-northwest,10.4,Yes
2016/01/30,04:40,0.378,0.227,0.408,0.360,0.340,0.189,0.157,north-northwest,9.5,Yes
2016/01/30,04:50,0.377,0.228,0.409,0.359,0.341,0.189,0.157,north-northwest,8.9,Yes
2016/01/30,05:00,0.375,0.226,0.407,0.359,0.341,0.189,0.156,north-northwest,10.0,Yes
2016/01/30,05:10,0.373,0.224,0.407,0.359,0.338,0.188,0.155,north-northwest,9.8,Yes
2016/01/30,05:20,0.371,0.224,0.405,0.357,0.337,0.186,0.153,north-northwest,10.4,Yes
2016/01/30,05:30,0.370,0.223,0.403,0.354,0.335,0.186,0.154,north-northwest,9.8,Yes
2016/01/30,05:40,0.370,0.222,0.404,0.354,0.333,0.184,0.153,north-northwest,9.3,Yes
2016/01/30,05:50,0.368,0.222,0.403,0.354,0.333,0.185,0.151,north-northwest,10.3,Yes
2016/01/30,06:00,0.366,0.221,0.402,0.354,0.333,0.183,0.151,north-northwest,10.1,Yes
2016/01/30,06:10,0.366,0.220,0.401,0.352,0.332,0.183,0.150,north-northwest,10.0,Yes
2016/01/30,06:20,0.365,0.219,0.401,0.350,0.332,0.183,0.149,north-northwest,9.0,Yes
2016/01/30,06:30,0.364,0.218,0.399,0.350,0.331,0.183,0.149,north-northwest,8.7,Yes
2016/01/30,06:40,0.363,0.218,0.400,0.351,0.330,0.183,0.149,north-northwest,7.5,Yes
2016/01/30,06:50,0.363,0.218,0.400,0.350,0.329,0.180,0.147,north-northwest,8.4,Yes
2016/01/30,07:00,0.363,0.219,0.397,0.349,0.329,0.180,0.148,north-northwest,8.4,Yes
2016/01/30,07:10,0.363,0.218,0.397,0.347,0.328,0.179,0.148,north-northwest,9.8,Yes
2016/01/30,07:20,0.361,0.215,0.397,0.348,0.329,0.178,0.147,north-northwest,8.9,Yes
2016/01/30,07:30,0.361,0.216,0.397,0.346,0.327,0.177,0.147,north-northwest,9.6,Yes
2016/01/30,07:40,0.359,0.215,0.396,0.346,0.327,0.178,0.145,north-northwest,10.0,Yes
2016/01/30,07:50,0.360,0.215,0.393,0.346,0.326,0.178,0.145,north-northwest,9.5,Yes
2016/01/30,08:00,0.359,0.215,0.395,0.344,0.327,0.176,0.144,north-northwest,11.8,Yes
2016/01/30,08:10,0.359,0.215,0.395,0.345,0.326,0.176,0.144,north-northwest,10.7,Yes
2016/01/30,08:20,0.359,0.214,0.395,0.346,0.326,0.177,0.143,north-northwest,10.9,Yes
2016/01/30,08:30,0.357,0.215,0.395,0.345,0.325,0.176,0.144,north-northwest,10.1,Yes
2016/01/30,08:40,0.359,0.215,0.394,0.344,0.326,0.175,0.143,north-northwest,9.0,Yes
2016/01/30,08:50,0.359,0.214,0.394,0.345,0.326,0.175,0.144,north-northwest,8.9,Yes
2016/01/30,09:00,0.357,0.213,0.396,0.345,0.326,0.176,0.144,north-northwest,8.6,Yes
2016/01/30,09:10,0.358,0.214,0.393,0.344,0.326,0.176,0.143,north-northwest,8.9,Yes
2016/01/30,09:20,0.356,0.214,0.392,0.343,0.323,0.176,0.142,north-northwest,10.6,Yes
2016/01/30,09:30,0.356,0.214,0.391,0.342,0.326,0.175,0.142,north,9.6,Yes
2016/01/30,09:40,0.355,0.214,0.390,0.344,0.325,0.174,0.141,north-northwest,10.3,Yes
2016/01/30,09:50,0.355,0.213,0.389,0.340,0.325,0.173,0.141,north-northwest,10.3,Yes
2016/01/30,10:00,0.350,0.212,0.389,0.342,0.324,0.173,0.140,north-northwest,9.8,Yes
2016/01/30,10:10,0.352,0.212,0.388,0.340,0.323,0.173,0.140,north,10.9,Yes
2016/01/30,10:20,0.351,0.212,0.386,0.340,0.323,0.173,0.139,north,10.9,Yes
2016/01/30,10:30,0.348,0.212,0.385,0.339,0.324,0.171,0.139,north,9.5,No
2016/01/30,10:40,0.349,0.212,0.383,0.337,0.321,0.172,0.138,north,11.1,Yes
2016/01/30,10:50,0.346,0.210,0.382,0.338,0.321,0.171,0.138,north,9.6,Yes
2016/01/30,11:00,0.348,0.211,0.382,0.336,0.321,0.171,0.137,north-northwest,10.0,Yes
2016/01/30,11:10,0.346,0.210,0.380,0.335,0.323,0.170,0.137,north-northwest,9.8,Yes
2016/01/30,11:20,0.345,0.210,0.378,0.334,0.322,0.169,0.137,north,10.4,Yes
2016/01/30,11:30,0.345,0.210,0.376,0.334,0.321,0.169,0.137,north,9.2,Yes
2016/01/30,11:40,0.346,0.210,0.376,0.335,0.321,0.169,0.136,north-northwest,8.8,No
2016/01/30,11:50,0.345,0.210,0.374,0.333,0.322,0.169,0.136,north-northwest,8.7,No
2016/01/30,12:00,0.344,0.209,0.372,0.331,0.321,0.169,0.136,north-northwest,6.8,No
2016/01/30,12:10,0.345,0.209,0.374,0.334,0.320,0.168,0.136,north-northwest,7.1,No
2016/01/30,12:20,0.345,0.209,0.371,0.333,0.321,0.169,0.135,north-northwest,7.0,No
2016/01/30,12:30,0.344,0.210,0.369,0.331,0.321,0.169,0.135,north-northwest,6.8,No
2016/01/30,12:40,0.344,0.209,0.370,0.332,0.321,0.169,0.135,north,7.3,No
2016/01/30,12:50,0.346,0.210,0.370,0.332,0.321,0.169,0.135,north-northwest,6.1,No
2016/01/30,13:00,0.346,0.211,0.370,0.332,0.323,0.170,0.136,north-northwest,5.3,No
2016/01/30,13:10,0.346,0.210,0.370,0.332,0.322,0.170,0.135,north-northwest,5.5,No
2016/01/30,13:20,0.347,0.211,0.371,0.329,0.321,0.170,0.136,north-northwest,5.4,No
2016/01/30,13:30,0.348,0.210,0.370,0.330,0.322,0.169,0.135,north-northwest,6.8,Yes
2016/01/30,13:40,0.348,0.212,0.369,0.330,0.322,0.170,0.136,north-northwest,5.6,No
2016/01/30,13:50,0.350,0.212,0.372,0.331,0.321,0.169,0.135,north,5.5,No
2016/01/30,14:00,0.349,0.212,0.372,0.332,0.322,0.170,0.136,north,5.1,No
2016/01/30,14:10,0.350,0.211,0.372,0.330,0.324,0.170,0.135,north-northwest,5.2,No
2016/01/30,14:20,0.351,0.212,0.372,0.334,0.323,0.171,0.136,north,6.2,No
2016/01/30,14:30,0.352,0.212,0.373,0.332,0.323,0.169,0.136,north,5.3,No
2016/01/30,14:40,0.352,0.212,0.374,0.331,0.323,0.170,0.135,north,5.5,No
2016/01/30,14:50,0.353,0.212,0.373,0.333,0.324,0.170,0.137,north-northwest,6.3,No
2016/01/30,15:00,0.353,0.214,0.375,0.334,0.324,0.171,0.135,north-northwest,5.0,No
2016/01/30,15:10,0.354,0.214,0.376,0.333,0.324,0.171,0.137,north-northwest,6.3,No
2016/01/30,15:20,0.354,0.214,0.374,0.332,0.325,0.171,0.136,north-northwest,5.7,No
2016/01/30,15:30,0.355,0.212,0.375,0.335,0.326,0.171,0.138,north-northwest,4.6,No
2016/01/30,15:40,0.355,0.214,0.376,0.336,0.324,0.171,0.137,north-northwest,5.4,No
2016/01/30,15:50,0.355,0.215,0.377,0.333,0.324,0.172,0.138,north-northwest,6.0,No
2016/01/30,16:00,0.356,0.215,0.377,0.332,0.326,0.171,0.138,north-northwest,5.9,No
2016/01/30,16:10,0.354,0.214,0.377,0.335,0.326,0.171,0.138,north-northwest,6.0,No
2016/01/30,16:20,0.357,0.215,0.378,0.334,0.325,0.172,0.138,north-northwest,5.9,No
2016/01/30,16:30,0.356,0.215,0.377,0.335,0.325,0.172,0.139,northwest,5.9,No
2016/01/30,16:40,0.357,0.215,0.379,0.336,0.326,0.172,0.138,northwest,5.3,No
2016/01/30,16:50,0.359,0.214,0.378,0.336,0.326,0.173,0.138,north-northwest,5.7,No
2016/01/30,17:00,0.357,0.215,0.380,0.336,0.325,0.173,0.139,northwest,6.0,No
2016/01/30,17:10,0.358,0.215,0.379,0.337,0.325,0.171,0.137,north-northwest,6.3,No
2016/01/30,17:20,0.357,0.215,0.379,0.337,0.328,0.172,0.138,north-northwest,6.4,No
2016/01/30,17:30,0.359,0.215,0.380,0.336,0.326,0.172,0.138,north-northwest,6.4,No
2016/01/30,17:40,0.359,0.216,0.382,0.336,0.326,0.173,0.139,north-northwest,6.5,No
2016/01/30,17:50,0.360,0.216,0.379,0.337,0.324,0.173,0.138,northwest,6.2,No
2016/01/30,18:00,0.359,0.215,0.381,0.338,0.328,0.173,0.140,northwest,7.0,No
2016/01/30,18:10,0.360,0.216,0.382,0.339,0.327,0.173,0.139,northwest,7.9,No
2016/01/30,18:20,0.361,0.216,0.382,0.338,0.326,0.173,0.139,north-northwest,8.5,No
2016/01/30,18:30,0.362,0.217,0.381,0.338,0.327,0.173,0.139,north-northwest,8.1,No
2016/01/30,18:40,0.361,0.217,0.381,0.339,0.328,0.173,0.139,north-northwest,8.8,No
2016/01/30,18:50,0.361,0.217,0.381,0.338,0.328,0.173,0.139,north-northwest,8.5,No
2016/01/30,19:00,0.362,0.217,0.383,0.337,0.328,0.173,0.140,north-northwest,8.2,No
2016/01/30,19:10,0.361,0.216,0.383,0.338,0.326,0.173,0.140,north-northwest,7.7,No
2016/01/30,19:20,0.363,0.218,0.383,0.339,0.326,0.173,0.140,north-northwest,6.7,No
2016/01/30,19:30,0.362,0.217,0.384,0.339,0.330,0.174,0.139,north-northwest,7.0,No
2016/01/30,19:40,0.364,0.218,0.385,0.339,0.327,0.173,0.139,north-northwest,7.3,No
2016/01/30,19:50,0.363,0.218,0.384,0.339,0.327,0.174,0.139,north-northwest,7.0,No
2016/01/30,20:00,0.364,0.217,0.382,0.339,0.327,0.174,0.139,north-northwest,6.8,No
2016/01/30,20:10,0.364,0.218,0.386,0.338,0.328,0.174,0.139,north-northwest,6.3,No
2016/01/30,20:20,0.363,0.218,0.386,0.338,0.327,0.174,0.139,north,7.3,No
2016/01/30,20:30,0.364,0.219,0.386,0.340,0.327,0.174,0.140,north,6.7,No
2016/01/30,20:40,0.364,0.218,0.384,0.341,0.328,0.173,0.141,north,6.6,No
2016/01/30,20:50,0.365,0.218,0.386,0.339,0.330,0.174,0.140,north,6.1,No
2016/01/30,21:00,0.365,0.218,0.385,0.340,0.329,0.173,0.140,north,6.1,No
2016/01/30,21:10,0.364,0.217,0.385,0.339,0.328,0.175,0.140,north-northeast,4.2,No
2016/01/30,21:20,0.365,0.218,0.385,0.339,0.329,0.175,0.140,north,5.3,No
2016/01/30,21:30,0.366,0.218,0.387,0.339,0.330,0.174,0.140,north,5.7,No
2016/01/30,21:40,0.366,0.218,0.387,0.341,0.329,0.174,0.141,north,5.1,No
2016/01/30,21:50,0.365,0.219,0.384,0.341,0.330,0.174,0.141,north,5.8,No
2016/01/30,22:00,0.365,0.219,0.387,0.342,0.330,0.175,0.139,north,5.6,No
2016/01/30,22:10,0.367,0.219,0.389,0.340,0.330,0.175,0.141,north-northeast,4.2,No
2016/01/30,22:20,0.366,0.220,0.386,0.340,0.330,0.176,0.141,north-northeast,4.8,No
2016/01/30,22:30,0.366,0.221,0.386,0.341,0.330,0.176,0.140,north-northwest,4.7,No
2016/01/30,22:40,0.366,0.220,0.388,0.342,0.330,0.176,0.141,north-northwest,4.0,No
2016/01/30,22:50,0.365,0.220,0.388,0.342,0.329,0.174,0.140,north-northwest,2.5,No
2016/01/30,23:00,0.366,0.219,0.389,0.341,0.330,0.174,0.141,-,CALM,No
2016/01/30,23:10,0.367,0.220,0.388,0.341,0.331,0.175,0.141,north,2.0,No
2016/01/30,23:20,0.366,0.219,0.388,0.342,0.331,0.175,0.141,north,3.8,No
2016/01/30,23:30,0.367,0.220,0.389,0.342,0.330,0.175,0.141,north,4.4,No
2016/01/30,23:40,0.370,0.220,0.389,0.344,0.332,0.175,0.141,north,4.7,No
2016/01/30,23:50,0.369,0.220,0.388,0.342,0.332,0.175,0.141,north-northwest,6.2,No
